Presure
97 92 120 134 102 186 142 121 126 150 166 130 123 119 145 113 112 113 114 135 116 114 114 117 120 125 129 130 149 185 154 159 119 90 101 106 101 101 119 103 117 109 97
107 122 121 129 119 179 183 131 100 111 144 130 111 107 103 106 116 121 109 107 108 109 111 110 111 116 119 126 131 137 158 157 124 124 113 104 117 124 117 117 102 93 102
95 99 125 133 119 103 101 122 105 97 158 141 115 118 119 156 104 104 104 106 111 113 115 115 115 112 111 115 116 121 125 127 127 127 127 128 128 118 111 87 99 119 138
101 97 124 108 98 105 97 101 100 102 91 96 97 136 101 96 104 105 97 98 100 103 104 106 108 111 112 115 116 116 116 116 118 118 119 119 102 98 89 95 127 137 162
95 98 123 112 97 101 125 95 101 100 96 87 89 100 97 97 96 96 95 90 97 98 98 103 123 124 116 115 115 123 120 112 112 113 134 149 85 90 113 95 162 168 167
102 95 95 105 100 95 90 89 88 88 88 170 141 143 155 129 147 155 164 175 116 84 115 118 172 189 174 166 165 154 158 160 160 87 84 109 90 102 95 167 151 180 171
110 113 112 97 122 114 100 126 120 118 123 124 160 186 157 169 154 119 160 161 177 173 183 179 157 107 189 142 97 95 96 89 91 100 96 89 103 130 142 175 135 139 128
113 110 102 104 103 106 126 127 120 120 122 133 125 104 104 104 104 165 103 106 109 143 145 123 136 134 155 144 154 83 86 99 109 151 138 155 167 154 122 140 125 132 133
95 118 112 118 93 120 125 119 133 122 120 105 101 100 95 103 97 100 105 101 102 105 114 115 114 112 111 111 116 119 124 126 120 122 140 172 176 132 129 131 131 133 135
126 126 117 114 96 106 122 130 133 109 103 99 97 95 96 95 95 94 92 93 95 95 107 104 79 117 118 110 108 110 113 118 118 119 122 121 132 136 141 148 169 147 169
146 131 108 104 122 120 125 112 110 88 95 97 89 94 95 92 94 96 101 100 100 106 107 103 101 105 111 119 123 125 116 109 112 116 118 121 122 121 126 128 133 143 178
91 117 101 118 126 112 114 93 95 96 97 95 95 93 91 93 96 96 86 86 91 92 91 98 111 124 136 119 154 173 174 157 132 133 133 117 115 123 123 122 126 127 134
99 80 96 103 99 98 107 102 101 92 88 95 94 94 96 93 89 88 92 93 91 94 92 92 89 93 110 111 121 179 174 173 173 175 178 185 172 118 124 127 127 127 127
74 80 124 96 83 85 84 89 95 96 102 92 91 92 99 94 98 95 89 90 96 99 110 101 106 109 108 120 161 127 146 143 126 138 183 182 181 182 188 132 123 129 125
114 90 89 84 83 84 85 81 85 90 91 93 92 91 91 93 96 98 95 93 88 89 84 95 107 95 107 96 118 132 121 122 125 127 141 141 182 181 177 174 143 121 137
94 94 95 94 86 82 86 88 86 89 91 94 91 90 93 90 88 95 95 100 95 89 88 95 99 111 110 117 130 129 131 123 122 123 127 170 174 168 172 172 175 178 139
93 94 90 89 95 93 89 90 89 90 88 88 87 92 91 91 87 84 92 92 94 97 93 95 91 97 131 113 120 128 115 132 124 122 125 128 175 172 173 174 178 174 181
93 93 95 96 93 94 93 96 90 92 93 90 92 89 93 93 89 92 90 90 89 90 103 102 97 96 97 117 114 175 150 132 126 120 123 126 170 174 175 178 174 180 177
98 96 95 90 89 95 95 97 94 92 94 93 91 94 94 95 102 94 99 90 90 105 88 115 102 100 93 99 108 111 162 178 183 118 119 124 127 127 180 181 183 183 188
155 103 101 102 97 95 97 96 90 97 99 102 103 103 102 99 101 96 96 93 92 91 98 91 97 103 101 103 97 124 132 154 176 181 167 116 122 125 166 145 158 182 187
217 215 222 102 103 106 103 101 101 93 95 92 92 97 98 97 84 95 99 95 91 100 102 88 99 101 104 100 107 181 129 133 177 170 130 182 114 122 124 177 177 182 182
182 218 221 223 228 115 108 106 108 103 98 97 97 95 93 96 90 91 95 94 98 97 100 97 99 99 109 184 188 122 154 146 186 136 173 163 174 94 126 126 182 192 187
168 179 213 223 213 219 193 195 191 152 148 141 174 173 144 148 147 96 176 100 100 95 100 98 182 142 182 178 180 183 183 188 188 186 158 92 180 142 121 124 129 120 183
174 173 177 204 213 216 212 206 196 190 180 185 185 182 182 180 184 181 181 171 166 161 166 145 166 179 179 181 177 180 177 178 180 182 185 170 181 183 186 171 139 188 185
181 174 128 186 209 211 215 215 216 197 189 192 193 189 183 181 178 174 179 183 180 182 178 179 175 177 176 175 173 178 177 180 179 174 177 179 177 182 187 189 187 224 182
185 176 125 127 176 196 181 171 214 213 213 207 203 196 193 189 186 183 184 183 184 179 177 181 177 177 176 176 176 180 179 179 179 180 191 205 222 189 124 135 221 216 214
Wind_Speed
24 21 24 22 20 31 20 16 15 18 23 14 13 12 12 9 7 6 5 3 5 6 7 7 6 4 3 2 10 18 9 12 8 14 15 14 18 17 18 22 21 24 26
29 27 27 23 21 28 27 20 16 16 18 14 13 11 9 7 8 7 6 5 6 6 5 6 7 7 7 4 1 3 13 14 6 9 11 15 17 17 19 21 22 24 27
27 27 29 25 24 21 19 20 17 16 22 16 12 13 10 14 7 7 7 5 4 4 4 4 3 5 6 5 6 7 5 5 7 10 12 14 16 17 18 18 22 25 23
33 28 31 26 23 23 19 19 17 16 13 12 12 13 9 7 7 6 6 6 5 4 5 5 5 4 4 4 6 7 8 8 9 11 13 15 12 14 17 20 23 22 27
29 30 32 29 24 24 25 18 18 16 14 12 11 11 9 7 6 6 5 5 4 4 5 4 5 6 5 6 7 9 9 10 11 13 19 20 11 15 18 22 23 26 26
36 27 25 30 28 24 20 18 17 15 13 25 22 21 19 16 18 18 18 19 4 7 2 2 17 16 19 19 19 19 20 20 20 9 9 14 16 22 21 25 22 27 26
41 39 38 26 34 32 25 30 27 25 23 21 24 27 22 24 20 12 20 20 20 20 20 20 20 4 18 10 10 11 12 10 12 16 17 15 17 21 21 26 23 25 26
45 42 34 35 29 29 35 33 30 27 25 26 23 16 13 11 10 23 4 4 2 10 10 3 12 12 19 13 18 6 8 10 14 18 17 19 21 21 23 24 25 25 26
34 45 43 40 26 36 35 34 35 31 28 23 18 15 11 11 7 6 5 3 2 3 4 5 6 9 11 13 13 14 14 15 17 18 20 24 24 20 22 23 24 26 26
53 51 48 42 33 35 38 39 38 31 24 20 18 16 14 13 11 10 9 7 6 7 6 8 8 9 12 15 19 20 20 20 21 21 20 21 20 21 24 25 27 26 30
53 54 45 40 46 43 42 35 34 22 24 24 19 19 18 17 15 13 9 8 7 7 11 12 13 14 15 16 19 21 23 25 26 25 24 24 24 26 24 25 26 26 34
38 47 43 50 50 44 42 32 32 31 29 26 24 23 21 19 17 16 13 11 13 12 14 15 16 19 22 21 26 29 28 27 25 24 28 27 28 26 27 27 27 28 28
50 37 43 46 40 37 41 36 36 31 27 27 25 24 23 22 20 18 19 17 17 16 17 17 13 17 20 22 23 33 34 34 33 32 33 33 33 29 29 30 29 29 29
30 41 59 44 36 36 34 33 35 33 34 30 28 27 26 25 25 24 21 20 19 17 21 20 19 21 23 23 33 24 29 30 25 28 35 36 36 36 37 33 30 31 29
69 55 51 44 40 40 40 34 35 36 34 34 32 30 28 28 28 28 26 25 21 21 17 21 23 20 25 25 27 27 28 28 28 28 30 29 38 38 37 37 35 30 34
59 57 54 52 44 39 41 41 39 40 37 38 34 32 33 30 28 31 30 29 28 24 23 26 26 27 28 30 30 29 30 30 30 30 30 38 39 36 39 39 42 42 35
57 59 57 53 56 54 50 48 45 45 42 39 37 38 36 36 34 31 33 32 31 30 30 29 29 30 37 33 34 34 30 33 33 32 33 33 41 42 42 43 44 41 45
61 60 64 64 59 58 56 55 49 49 50 46 45 41 42 41 39 39 37 36 33 32 35 34 32 32 33 36 37 45 41 36 37 35 35 35 42 43 44 45 43 45 43
71 69 66 57 53 60 61 60 55 50 54 52 45 47 47 47 48 43 44 41 40 42 34 43 36 35 34 36 39 40 47 49 50 39 36 37 37 36 46 47 47 47 47
74 79 73 72 66 62 64 62 52 57 58 60 58 56 55 54 53 48 44 44 43 42 43 39 39 39 37 39 37 44 43 48 50 50 48 37 38 39 45 41 41 48 47
60 67 74 73 73 76 72 68 66 57 59 54 53 56 58 56 46 51 50 48 47 51 50 36 43 43 44 41 44 60 46 45 55 50 45 51 39 41 41 48 46 48 47
77 66 69 73 76 84 80 76 77 72 68 67 67 63 60 60 51 49 54 53 56 52 51 46 46 47 54 61 60 53 55 50 59 46 53 50 52 25 45 43 52 53 50
87 82 70 68 76 77 86 87 86 85 82 81 78 76 74 75 74 61 74 61 58 50 54 53 65 62 65 63 63 64 63 62 61 60 53 26 57 51 44 44 44 36 51
91 89 86 76 73 77 81 87 89 89 87 86 84 82 80 78 79 75 74 75 72 70 67 70 66 67 65 65 65 67 65 63 62 62 62 57 59 60 60 56 48 55 53
90 91 81 84 75 77 78 79 79 91 90 88 87 86 84 81 79 76 77 77 74 73 70 70 67 68 67 67 65 68 68 68 65 60 61 62 59 60 61 57 57 52 54
90 93 83 83 87 78 78 81 81 82 82 87 89 89 87 85 83 82 82 78 77 74 72 74 72 72 71 71 71 73 71 72 69 68 66 65 59 57 52 50 55 54 53
Wind_Direction
192 187 200 211 192 226 222 202 207 219 231 203 192 185 222 163 149 135 118 177 92 84 74 66 48 42 38 47 277 242 249 259 328 32 349 330 344 346 327 340 326 338 344
199 205 203 201 203 215 213 211 166 176 220 201 168 164 153 147 169 186 118 103 91 85 77 64 61 43 24 21 340 292 263 261 283 285 314 335 314 311 322 322 340 350 335
203 201 205 207 201 194 187 202 182 170 231 211 183 183 176 232 134 119 108 102 105 106 102 95 68 49 38 12 1 358 330 299 288 285 291 302 304 319 326 1 337 327 328
203 202 209 201 198 197 189 189 182 179 172 169 161 210 158 143 142 138 105 87 76 68 72 63 51 46 24 356 341 340 336 331 317 315 319 314 340 346 354 342 321 327 318
207 205 209 203 197 197 207 188 188 184 184 171 171 169 172 165 161 138 121 92 77 54 47 24 285 288 317 321 323 303 311 329 329 323 303 298 2 352 329 342 308 313 314
211 207 205 204 200 196 190 188 184 183 186 229 226 231 231 227 235 240 239 241 208 86 288 293 248 237 250 257 257 268 266 268 274 13 17 335 353 336 342 302 317 306 313
214 213 213 208 208 208 204 207 206 206 207 206 221 227 234 236 236 217 242 245 243 245 244 245 258 313 242 272 343 357 351 10 355 335 345 355 335 315 309 301 317 318 322
216 213 212 210 210 208 210 209 206 206 207 219 208 178 170 177 164 239 170 146 128 247 256 267 270 279 267 271 270 33 10 331 324 288 310 291 290 298 315 312 317 318 321
216 214 214 212 209 205 212 204 214 203 200 183 186 186 205 210 217 213 178 237 272 324 305 306 302 304 305 305 302 299 298 296 298 302 298 284 286 309 308 311 313 315 317
215 213 211 211 213 205 206 215 215 187 189 195 197 206 211 220 228 237 252 263 269 285 295 306 168 289 286 295 301 299 297 296 299 301 303 304 315 317 317 313 305 314 310
221 215 216 215 209 207 210 199 199 226 210 202 228 214 210 226 227 232 235 239 256 286 291 289 293 300 299 289 288 287 293 304 304 301 303 305 305 307 309 309 312 318 311
219 220 216 212 212 205 217 219 218 219 215 217 218 225 228 229 228 231 251 259 268 274 285 294 300 282 279 300 277 270 277 284 292 285 293 299 307 299 303 305 307 311 318
218 227 224 217 217 217 210 214 215 226 234 224 227 230 232 236 240 246 252 255 267 268 282 292 297 303 302 304 295 276 277 279 281 284 287 289 295 304 301 298 302 307 312
232 232 219 223 223 227 230 229 226 227 223 235 234 236 237 242 240 242 252 257 259 266 268 278 288 292 288 289 275 285 282 285 292 292 289 292 296 299 303 291 303 301 308
213 223 224 226 225 225 227 233 235 236 234 236 237 239 242 245 246 246 247 251 258 264 270 280 288 284 291 294 290 279 286 288 289 292 293 295 296 300 305 309 301 304 302
224 228 229 228 232 234 234 234 238 240 239 240 241 242 244 248 252 251 253 253 254 259 265 272 279 290 285 290 278 279 278 283 286 290 292 293 297 302 303 306 309 310 302
227 227 231 233 232 233 234 233 234 238 241 241 243 246 244 247 251 259 255 258 259 262 264 267 271 277 273 295 287 280 284 278 285 288 289 292 292 296 299 302 303 307 308
230 229 228 228 232 234 236 235 235 237 240 241 241 244 245 244 249 251 253 255 259 262 268 269 269 273 278 278 292 272 277 276 280 287 289 291 290 293 296 297 301 302 305
232 233 233 233 236 236 238 239 239 238 240 242 243 245 248 251 254 246 250 253 256 268 263 271 269 271 273 279 287 285 275 276 277 288 290 289 291 293 292 294 296 298 301
228 233 234 235 236 238 238 239 243 243 244 245 247 247 249 250 252 251 249 251 254 257 262 263 265 274 273 279 274 280 273 275 276 277 282 287 288 289 290 293 298 297 299
212 217 222 237 238 238 240 241 241 243 245 246 247 249 249 249 247 251 255 254 254 261 263 261 266 269 273 268 277 269 275 271 275 278 276 280 285 287 290 291 295 296 297
225 216 221 224 226 239 243 244 244 244 244 245 244 243 244 247 247 250 252 250 254 257 262 261 264 265 275 266 267 278 273 271 274 271 280 283 286 287 285 289 294 292 292
228 227 218 220 225 227 228 230 232 239 241 244 239 241 246 246 247 250 249 253 256 256 262 261 257 265 262 265 268 269 271 272 273 275 274 273 283 282 284 288 291 293 290
227 228 229 221 220 226 227 229 231 233 238 237 238 241 243 245 245 247 249 251 253 255 255 261 259 260 262 263 266 269 271 273 274 276 277 277 281 282 283 284 286 284 285
227 229 233 229 221 221 226 229 231 232 236 237 238 240 242 245 247 249 249 249 253 254 256 257 260 262 264 266 268 270 272 273 274 278 278 279 280 280 280 281 282 281 283
227 231 233 234 234 232 236 237 229 231 234 237 239 240 242 245 247 249 251 252 253 255 257 257 260 262 264 266 268 269 271 272 275 276 278 280 281 280 281 285 277 277 278